sat.trackr.live / text

‹ back to catalog

STARLINK-37362

NORAD 68974 · 2026-099Z

PAYLOAD ACTIVE UNKNOWN

§ Identity

Operator
Country
US
Launch date
2026-05-01
Launch site
AFETR
Launch vehicle
Mass (kg)
RCS (m²)

Purposes: comms

External: N2YO · Heavens-Above · Gunter

§ Orbital elements

Epoch: 2026-09-19T19:43:17.553216Z

Period
93.85 min
Inclination
53.1586°
Eccentricity
0.0001302
Mean motion
15.34400883 rev/d
Perigee alt
461.8 km
Apogee alt
463.6 km
Semi-major
6,840.8 km
B*
5.2483e-4
RAAN
78.7208°
Arg perigee
111.0408°
Mean anomaly
249.0734°
Rev number
2,180

§ Raw data

STARLINK-373621 68974U 26099Z   26262.82173094  .00017398  00000+0  52483-3 0  99942 68974  53.1586  78.7208 0001302 111.0408 249.0734 15.34400883 21803

JSON: /api/v1/satellites/68974 · /tle

For live sub-satellite position, see the globe view (requires WebGL).

§ Visibility from observer

Set your observer location to see the next 7 days of passes ≥ 10°. The values pass through the URL so the page stays shareable.

No JS? Fill the form by hand. The geolocation button needs JavaScript.